• In Deutschland
  • Länderverzeichnis
  • Für 7 Tage
  • Wassertemperatur
  • Satellitenkarten
  • Wetterkarte
  • Widgets
  • user-avatar
    Anmelden

    Stündliche Wetter Batatais

    Heute, 22 Oktober, Montag

    Zeit Temperatur Niederschläge Wind Luftdruck Luftfeuchtigkeit
    00:00 +21°C° 0 mm 3 m/S 688 mmHg 79%
    01:00 +20°C° 0 mm 3 m/S 688 mmHg 80%
    02:00 +20°C° 0 mm 3 m/S 688 mmHg 81%
    03:00 +19°C° 0 mm 3 m/S 688 mmHg 82%
    04:00 +19°C° 0 mm 3 m/S 688 mmHg 83%
    05:00 +18°C° 0 mm 3 m/S 688 mmHg 85%
    06:00 +18°C° 0 mm 3 m/S 688 mmHg 86%
    07:00 +20°C° 0 mm 3 m/S 689 mmHg 80%
    08:00 +22°C° 0 mm 3 m/S 689 mmHg 73%
    09:00 +26°C° 0 mm 3 m/S 690 mmHg 65%
    10:00 +27°C° 0 mm 2 m/S 690 mmHg 60%
    11:00 +28°C° 0 mm 2 m/S 690 mmHg 55%
    12:00 +30°C° 0 mm 2 m/S 690 mmHg 50%
    13:00 +30°C° 0 mm 2 m/S 689 mmHg 50%
    14:00 +30°C° 0 mm 1 m/S 688 mmHg 51%
    15:00 +29°C° 0 mm 1 m/S 688 mmHg 51%
    16:00 +28°C° 0 mm 1 m/S 687 mmHg 55%
    17:00 +27°C° 0 mm 1 m/S 687 mmHg 60%
    18:00 +26°C° 0 mm 1 m/S 687 mmHg 64%
    19:00 +25°C° 0.1 mm 1 m/S 687 mmHg 68%
    20:00 +24°C° 0.1 mm 2 m/S 687 mmHg 71%
    21:00 +23°C° 0.1 mm 2 m/S 688 mmHg 75%
    22:00 +23°C° 0 mm 2 m/S 688 mmHg 78%
    23:00 +21°C° 0 mm 2 m/S 688 mmHg 81%

    Morgen, 23 Oktober, Dienstag

    Zeit Temperatur Niederschläge Wind Luftdruck Luftfeuchtigkeit
    00:00 +20°C° 0 mm 2 m/S 688 mmHg 84%
    01:00 +20°C° 0 mm 2 m/S 688 mmHg 85%
    02:00 +20°C° 0 mm 2 m/S 688 mmHg 85%
    03:00 +19°C° 0 mm 2 m/S 687 mmHg 86%
    04:00 +19°C° 0 mm 2 m/S 687 mmHg 86%
    05:00 +19°C° 0 mm 2 m/S 688 mmHg 86%
    06:00 +19°C° 0 mm 2 m/S 688 mmHg 86%
    07:00 +21°C° 0 mm 3 m/S 688 mmHg 79%
    08:00 +24°C° 0 mm 3 m/S 689 mmHg 72%
    09:00 +26°C° 0 mm 4 m/S 689 mmHg 65%
    10:00 +27°C° 0 mm 3 m/S 689 mmHg 61%
    11:00 +29°C° 0 mm 3 m/S 689 mmHg 56%
    12:00 +30°C° 0 mm 3 m/S 689 mmHg 52%
    13:00 +30°C° 0.1 mm 2 m/S 689 mmHg 52%
    14:00 +30°C° 0.1 mm 2 m/S 688 mmHg 53%
    15:00 +30°C° 0.1 mm 2 m/S 687 mmHg 53%
    16:00 +29°C° 0.1 mm 1 m/S 687 mmHg 58%
    17:00 +28°C° 0.1 mm 1 m/S 687 mmHg 63%
    18:00 +27°C° 0.1 mm 1 m/S 686 mmHg 67%
    19:00 +26°C° 0.5 mm 1 m/S 687 mmHg 72%
    20:00 +25°C° 0.5 mm 1 m/S 688 mmHg 76%
    21:00 +24°C° 0.5 mm 2 m/S 688 mmHg 81%
    22:00 +23°C° 0.2 mm 2 m/S 688 mmHg 83%
    23:00 +23°C° 0.2 mm 2 m/S 688 mmHg 85%

    übermorgen, 24 Oktober, Mittwoch

    Zeit Temperatur Niederschläge Wind Luftdruck Luftfeuchtigkeit
    00:00 +23°C° 0.2 mm 2 m/S 688 mmHg 86%
    01:00 +21°C° 0 mm 2 m/S 687 mmHg 87%
    02:00 +21°C° 0 mm 2 m/S 687 mmHg 87%
    03:00 +21°C° 0 mm 2 m/S 686 mmHg 87%
    04:00 +22°C° 0 mm 1 m/S 686 mmHg 87%
    05:00 +22°C° 0 mm 1 m/S 687 mmHg 87%
    06:00 +22°C° 0 mm 1 m/S 687 mmHg 87%
    07:00 +23°C° 0.1 mm 2 m/S 688 mmHg 82%
    08:00 +25°C° 0.1 mm 2 m/S 688 mmHg 76%
    09:00 +26°C° 0.1 mm 3 m/S 689 mmHg 70%
    10:00 +27°C° 0.8 mm 3 m/S 689 mmHg 69%
    11:00 +27°C° 0.8 mm 3 m/S 689 mmHg 68%
    12:00 +28°C° 0.8 mm 3 m/S 688 mmHg 66%
    13:00 +27°C° 2.4 mm 2 m/S 688 mmHg 72%
    14:00 +26°C° 2.4 mm 2 m/S 687 mmHg 77%
    15:00 +25°C° 2.4 mm 2 m/S 686 mmHg 82%
    16:00 +25°C° 0.9 mm 1 m/S 686 mmHg 84%
    17:00 +24°C° 0.9 mm 1 m/S 686 mmHg 86%
    18:00 +22°C° 0.9 mm 0 m/S 686 mmHg 88%
    19:00 +21°C° 0.7 mm 0 m/S 686 mmHg 89%
    20:00 +23°C° 0.7 mm 1 m/S 687 mmHg 89%
    21:00 +23°C° 0.7 mm 1 m/S 687 mmHg 90%
    22:00 +22°C° 1.1 mm 1 m/S 687 mmHg 90%
    23:00 +22°C° 1.1 mm 1 m/S 687 mmHg 90%

    25 Oktober, Donnerstag

    Zeit Temperatur Niederschläge Wind Luftdruck Luftfeuchtigkeit
    00:00 +22°C° 1.1 mm 1 m/S 687 mmHg 90%
    01:00 +22°C° 0.6 mm 1 m/S 686 mmHg 91%
    02:00 +22°C° 0.6 mm 1 m/S 686 mmHg 92%
    03:00 +21°C° 0.6 mm 1 m/S 685 mmHg 93%
    04:00 +21°C° 0.2 mm 1 m/S 685 mmHg 93%
    05:00 +21°C° 0.2 mm 1 m/S 686 mmHg 93%
    06:00 +21°C° 0.2 mm 1 m/S 686 mmHg 94%
    07:00 +22°C° 0.5 mm 1 m/S 686 mmHg 92%
    08:00 +22°C° 0.5 mm 1 m/S 687 mmHg 91%
    09:00 +23°C° 0.5 mm 2 m/S 687 mmHg 90%
    10:00 +23°C° 1 mm 2 m/S 687 mmHg 90%
    11:00 +23°C° 1 mm 2 m/S 687 mmHg 90%
    12:00 +23°C° 1 mm 2 m/S 686 mmHg 89%
    13:00 +23°C° 1.2 mm 2 m/S 686 mmHg 89%
    14:00 +23°C° 1.2 mm 2 m/S 685 mmHg 89%
    15:00 +24°C° 1.2 mm 3 m/S 685 mmHg 88%
    16:00 +23°C° 1.2 mm 2 m/S 685 mmHg 90%
    17:00 +23°C° 1.2 mm 2 m/S 685 mmHg 92%
    18:00 +23°C° 1.2 mm 1 m/S 685 mmHg 94%
    19:00 +22°C° 1.5 mm 1 m/S 685 mmHg 94%
    20:00 +22°C° 1.5 mm 1 m/S 686 mmHg 95%
    21:00 +22°C° 1.5 mm 1 m/S 686 mmHg 95%
    22:00 +22°C° 0.8 mm 1 m/S 686 mmHg 95%
    23:00 +22°C° 0.8 mm 1 m/S 685 mmHg 96%

    26 Oktober, Freitag

    Zeit Temperatur Niederschläge Wind Luftdruck Luftfeuchtigkeit
    00:00 +21°C° 0.8 mm 1 m/S 685 mmHg 96%
    01:00 +21°C° 1 mm 1 m/S 685 mmHg 96%
    02:00 +21°C° 1 mm 1 m/S 684 mmHg 96%
    03:00 +20°C° 1 mm 2 m/S 684 mmHg 96%
    04:00 +20°C° 0.8 mm 2 m/S 684 mmHg 96%
    05:00 +20°C° 0.8 mm 2 m/S 684 mmHg 96%
    06:00 +20°C° 0.8 mm 2 m/S 685 mmHg 96%
    07:00 +21°C° 0.7 mm 2 m/S 685 mmHg 94%
    08:00 +21°C° 0.7 mm 3 m/S 685 mmHg 93%
    09:00 +21°C° 0.7 mm 3 m/S 686 mmHg 92%
    10:00 +22°C° 0.9 mm 3 m/S 685 mmHg 91%
    11:00 +22°C° 0.9 mm 3 m/S 685 mmHg 91%
    12:00 +22°C° 0.9 mm 4 m/S 685 mmHg 90%
    13:00 +22°C° 1 mm 3 m/S 685 mmHg 91%
    14:00 +22°C° 1 mm 3 m/S 684 mmHg 91%
    15:00 +22°C° 1 mm 3 m/S 684 mmHg 92%
    16:00 +23°C° 0.7 mm 2 m/S 684 mmHg 93%
    17:00 +23°C° 0.7 mm 2 m/S 684 mmHg 93%
    18:00 +23°C° 0.7 mm 2 m/S 684 mmHg 94%
    19:00 +23°C° 0.9 mm 2 m/S 684 mmHg 95%
    20:00 +21°C° 0.9 mm 2 m/S 685 mmHg 95%
    21:00 +21°C° 0.9 mm 2 m/S 685 mmHg 96%
    22:00 +21°C° 0.6 mm 2 m/S 685 mmHg 97%
    23:00 +22°C° 0.6 mm 1 m/S 685 mmHg 97%

    27 Oktober, Samstag

    Zeit Temperatur Niederschläge Wind Luftdruck Luftfeuchtigkeit
    00:00 +21°C° 0.6 mm 1 m/S 684 mmHg 97%
    01:00 +21°C° 0.1 mm 1 m/S 684 mmHg 98%
    02:00 +21°C° 0.1 mm 1 m/S 684 mmHg 98%
    03:00 +21°C° 0.1 mm 1 m/S 684 mmHg 98%
    04:00 +21°C° 0.5 mm 1 m/S 684 mmHg 98%
    05:00 +21°C° 0.5 mm 1 m/S 684 mmHg 98%
    06:00 +21°C° 0.5 mm 1 m/S 684 mmHg 98%
    07:00 +22°C° 1 mm 1 m/S 685 mmHg 94%
    08:00 +23°C° 1 mm 1 m/S 685 mmHg 90%
    09:00 +24°C° 1 mm 2 m/S 686 mmHg 87%
    10:00 +25°C° 0.7 mm 2 m/S 685 mmHg 83%
    11:00 +26°C° 0.7 mm 2 m/S 685 mmHg 79%
    12:00 +27°C° 0.7 mm 2 m/S 685 mmHg 75%
    13:00 +27°C° 1.2 mm 2 m/S 685 mmHg 75%
    14:00 +27°C° 1.2 mm 3 m/S 684 mmHg 76%
    15:00 +27°C° 1.2 mm 3 m/S 683 mmHg 77%
    16:00 +26°C° 1 mm 2 m/S 684 mmHg 81%
    17:00 +25°C° 1 mm 2 m/S 684 mmHg 86%
    18:00 +24°C° 1 mm 2 m/S 684 mmHg 90%
    19:00 +24°C° 1.3 mm 2 m/S 684 mmHg 91%
    20:00 +23°C° 1.3 mm 1 m/S 685 mmHg 92%
    21:00 +23°C° 1.3 mm 1 m/S 685 mmHg 92%
    22:00 +22°C° 0.8 mm 1 m/S 685 mmHg 93%
    23:00 +22°C° 0.8 mm 1 m/S 685 mmHg 93%

    28 Oktober, Sonntag

    Zeit Temperatur Niederschläge Wind Luftdruck Luftfeuchtigkeit
    00:00 +22°C° 0.8 mm 1 m/S 685 mmHg 93%
    01:00 +21°C° 0.5 mm 1 m/S 685 mmHg 94%
    02:00 +21°C° 0.5 mm 1 m/S 685 mmHg 95%
    03:00 +21°C° 0.5 mm 1 m/S 684 mmHg 96%
    04:00 +21°C° 0.1 mm 1 m/S 685 mmHg 96%
    05:00 +20°C° 0.1 mm 1 m/S 685 mmHg 96%
    06:00 +20°C° 0.1 mm 1 m/S 685 mmHg 96%
    07:00 +22°C° 0 mm 1 m/S 686 mmHg 91%
    08:00 +23°C° 0 mm 1 m/S 686 mmHg 86%
    09:00 +25°C° 0 mm 1 m/S 687 mmHg 81%
    10:00 +26°C° 0.6 mm 1 m/S 687 mmHg 77%
    11:00 +27°C° 0.6 mm 1 m/S 686 mmHg 74%
    12:00 +28°C° 0.6 mm 1 m/S 686 mmHg 70%
    13:00 +28°C° 1.3 mm 2 m/S 685 mmHg 72%
    14:00 +27°C° 1.3 mm 2 m/S 685 mmHg 73%
    15:00 +27°C° 1.3 mm 2 m/S 684 mmHg 75%
    16:00 +26°C° 1.2 mm 2 m/S 685 mmHg 81%
    17:00 +24°C° 1.2 mm 2 m/S 685 mmHg 86%
    18:00 +23°C° 1.2 mm 1 m/S 685 mmHg 91%
    19:00 +23°C° 0.3 mm 1 m/S 685 mmHg 92%
    20:00 +22°C° 0.3 mm 1 m/S 686 mmHg 93%
    21:00 +22°C° 0.3 mm 1 m/S 686 mmHg 93%
    22:00 +21°C° 0 mm 1 m/S 686 mmHg 94%
    23:00 +21°C° 0 mm 1 m/S 686 mmHg 94%
    Mehr zeigen